FENGYUN 1C DEB, 32153

Orbit data source: Space-Track

FENGYUN 1C DEB, 32153 is space debris in SSO originally from a launch on Mon, 10 May 1999 UTC launched from the Taiyaun Space Center, China (TSC). Fengyun 1C debris stems from the Chinese weather satellite Fengyun-1C, which was intentionally destroyed by a Chinese anti-satellite missile in 2007. This event dramatically increased the amount of space debris, with thousands of trackable fragments posing hazards to satellites and human spaceflight. The Fengyun 1C debris cloud has become a focal point in discussions about space sustainability and the need for international regulations to prevent the creation of new debris.

Loading next visibility...
Identifier
32153, 1999-025CSX
Orbit
SSO
Country
Flag of CNCN / PRC
Related business
Manufacturer
Unknown
Mission
Spacecraft
Bus & Motor
Unknown
Mass
Unknown
Launch date (UTC)
1999-05-10 (26 years ago)
Launch vehicle
Unknown
Launch site
Taiyaun Space Center, China (TSC)
Object type
Payload
Rocket body
Debris
Shape & HBR
Unknown shape, 0.1 m
Radar Cross Section
Small (<0.1 m²)

Expand to show TLE details & history
Last TLE update: 1 day ago

TLE from 1 day ago
0 FENGYUN 1C DEB
1 32153U 99025CSX 25309.34725795  .00001144  00000-0  24377-3 0  9996
2 32153  98.7735 150.8010 0208193 334.5114  24.5923 14.48555422966820
Epoch: 2025-11-05T08:20Z
TLE epoch observation values (Epoch: 2025-11-05T08:20:03.086Z)
Latitude
-0.00012°
Longitude
-19.03307°
Altitude
599.276 km
Speed
7.631 km/s
True Right ascension
10h 03m 12s
True Declination
0° 00' 00"
Sunlit
Object was in daylight at epoch
Visualization orbit readout
Latitude
Unknown
Longitude
Unknown
Altitude
Unknown
Speed
Unknown
Apparent Right ascension
Unknown
Apparent Declination
Unknown
Sunlit
N/A
Visualization observer readout
Local Sidereal Time
11:13:00
Azimuth
Unknown
Elevation
Unknown
Doppler factor
Unknown
Orbital elements
Apogee altitude
875.427 km
Perigee altitude
579.558 km
Semi-major axis
7,105.629 km
Eccentricity
0.02082
Inclination
98.7735°
RAAN
150.801°
Arg. of periapsis
334.5114°
True anomaly
25.60912°
Mean anomaly
24.5923°
Eccentric anomaly
25.09828°
Mean motion
3.62359 °/min
Orbital period
99.35 mins
BSTAR
0.00024377
Loading maneuver chart data...
Computing Atmospheric mass density...

Documentation

Showing up to 5 results
|